STARLINK-36963, 68235

Orbit data source: Space-Track

STARLINK-36963, 68235 is a payload satellite owned by SpaceX/Seattle (US) in LEO that was launched on Tue, 17 Mar 2026 UTC via an FALCON 9 launch vehicle from the Air Force Eastern Test Range (AFETR). Payload-class satellites include a variety of spacecraft equipped with specific instruments for various scientific and technological missions. These include communications satellites like Starlink; space stations such as the ISS; scientific satellites like the Hubble; Earth observation satellites from companies like Planet Labs, Umbra, and HawkEye 360; GPS; miniature CubeSats for education and research; and military/defense satellites.

Loading next visibility...
Identifier
68235, 2026-054D
Orbit
LEO
Country
Flag of USUS
Related business
Manufacturer
SpaceX/Seattle
Mission
Operational spacecraft
Bus & Motor
STARLINK V2MO, Unknown motor
Mass
575 kg wet, ~530 kg dry
Launch date (UTC)
2026-03-17 (2 months ago)
Launch vehicle
FALCON 9
Launch site
Air Force Eastern Test Range (AFETR)
Object type
Payload
Rocket body
Debris
Shape & HBR
Unknown shape, 17.7 m
Radar Cross Section
RCS unknown

Expand to show TLE details & history
Last TLE update: 6 hours ago

TLE from 6 hours ago
0 STARLINK-36963
1 68235U 26054D   26145.50003471 -.00000122  00000-0  75079-5 0  9998
2 68235  53.1586 293.6818 0000576  87.0119 189.6015 15.34395750  5945
Epoch: 2026-05-25T12:00Z
TLE epoch observation values (Epoch: 2026-05-25T12:00:02.998Z)
Latitude
-52.80817°
Longitude
151.4991°
Altitude
481.453 km
Speed
7.624 km/s
True Right ascension
14h 18m 23s
True Declination
-52° 38' 09"
Sunlit
Object was in full shadow at epoch
Visualization orbit readout
Latitude
Unknown
Longitude
Unknown
Altitude
Unknown
Speed
Unknown
Apparent Right ascension
Unknown
Apparent Declination
Unknown
Sunlit
N/A
Visualization observer readout
Local Sidereal Time
03:04:37
Azimuth
Unknown
Elevation
Unknown
Doppler factor
Unknown
Orbital elements
Apogee altitude
463.367 km
Perigee altitude
462.579 km
Semi-major axis
6,841.11 km
Eccentricity
0.00006
Inclination
53.1586°
RAAN
293.6818°
Arg. of periapsis
87.0119°
True anomaly
189.6004°
Mean anomaly
189.6015°
Eccentric anomaly
189.60095°
Mean motion
3.83578 °/min
Orbital period
93.85 mins
BSTAR
0.0000075079
Loading maneuver chart data...
Computing Atmospheric mass density...
Loading historical data...
Loading historical data...
Loading historical data...
Loading historical data...
Loading historical data...
Loading historical data...
Loading historical data...

Documentation

Showing up to 5 results
|